Location: Newark
(33.6439°N, 114.9881°W)
Time: 02:56:11
(UTC+00:00)

A-11 Canister half - Pass Details

Date: 27 August 2019
Orbit: 1527 x 1682 km, 47.3° (Epoch: 15 September)

Event Time Altitude Azimuth Distance (km) Brightness Sun altitude
Rises 16:38:21 0° 216° (SW) 4,753 11.4 41.9°
Reaches altitude 10° 16:41:27 10° 212° (SSW) 3,791 11.1 42.5°
Maximum altitude 16:50:54 61° 135° (SE) 1,817 11.0 44.4°
Drops below altitude 10° 17:00:40 10° 59° (ENE) 3,917 11.6 46.2°
Sets 17:03:54 0° 56° (NE) 4,919 11.9 46.9°
